Regional Weather Roundup
Issued by NWS

Home | Current Version | Previous Version | Graphics & Text | Print | Product List | Glossary On
Versions: 1 2 3 4 5 6 7 8 9 10 11 12 13 14 15 16 17 18 19 20 21 22 23 24 25 26 27 28 29 30 31 32 33 34 35 36 37 38 39 40 41 42 43 44 45 46 47 48 49 50
000
ASUS43 KBIS 240610
RWRND

NORTH DAKOTA REGIONAL WEATHER ROUNDUP
NATIONAL WEATHER SERVICE BISMARCK ND
100 AM CDT SAT JUN 24 2017

NOTE: "FAIR" INDICATES FEW OR NO CLOUDS BELOW 12,000 FEET WITH NO
SIGNIFICANT WEATHER AND/OR OBSTRUCTIONS TO VISIBILITY.


NDZ001>003-009>011-017-240700-
NORTHWEST NORTH DAKOTA

CITY           SKY/WX    TMP DP  RH WIND       PRES   REMARKS
WILLISTON      CLOUDY    51  38  60 N9        30.17R
6HR MIN TEMP:  51; 6HR MAX TEMP:  68;

MINOT          CLOUDY    49  44  83 W14       30.08F
MINOT AFB      MOCLDY    48  44  84 NW15      30.07R
$$

NDZ018>021-031>035-040>046-240700-
SOUTHWEST NORTH DAKOTA

CITY           SKY/WX    TMP DP  RH WIND       PRES   REMARKS
BISMARCK       MOCLDY    50  39  66 SW5       30.10F
6HR MIN TEMP:  50; 6HR MAX TEMP:  66;

DICKINSON      CLEAR     44  31  60 W8        30.14R
GARRISON         N/A     50  38  63 N14       30.10R
6HR MIN TEMP:  50; 6HR MAX TEMP:  62;

HETTINGER ARPT CLEAR     42  31  64 CALM      30.19S
$$

NDZ004>008-012>016-024-026-027-054-240700-
NORTHEAST NORTH DAKOTA

CITY           SKY/WX    TMP DP  RH WIND       PRES   REMARKS
GRAND FORKS    CLOUDY    55  42  61 W10       29.97S
GRND FRKS AFB  CLEAR     50  40  69 NW6       29.98S
DEVILS LAKE    PTCLDY    51  41  68 W12       30.02F
$$

NDZ022-023-025-028>030-036>039-047>053-240700-
SOUTHEAST NORTH DAKOTA

CITY           SKY/WX    TMP DP  RH WIND       PRES   REMARKS
FARGO          CLEAR     50  39  66 W8        30.00S
6HR MIN TEMP:  50; 6HR MAX TEMP:  66;

JAMESTOWN      CLEAR     48  39  71 W7        30.04F
$$




USA.gov is the U.S. government's official web portal to all federal, state and local government web resources and services.